Погода Добеле

Погода Добеле : погода сейчас, прогноз погоды и архив. Всё, что Вы хотите узнать о погоде Добеле!

Поиск расширенной информации на нашем сайте:

Другие новости

Новости СМИ2

Главная страница сайта

Новости сайта

03.07.2017

Напоминаем, что на нашем специализированном сайте Метеоцентр.Азия вы можете получить высокодетализированные автоматические прогнозы погоды по пунктам России, СНГ и мира в авиационном формате (включающие направление и скорость ветра, видимость, явления погоды, количество и форму облачности, нижнюю и верхнюю границу облачности).


Погода Добеле - сегодня

Время (UTC), дата Ветер
(°,м/с) 
Видим.   Явления Облачность Т
(°С)
Тd
(°С)
f(%) Тe
(°С)
Pmin
(гПа)
dP
(гПа)
Po
(мм)
O2
(г/м3)
Тmin Tmax R s Состояние
почвы
06 17.06.18 170 (Ю) н/о    н/о 
+19.1 +12.3 65 +24  1016.3  -0.3  758  282  +11.7         
09 17.06.18 150 (ЮВ) н/о    н/о 
+24.3 +11.2 44 +27  1015.6  -0.6  758  278           
12 17.06.18 140 (ЮВ) 3{11}  н/о    н/о 
+25.9 +7.9 32 +26  1014.7  -0.9  757  277           
15 17.06.18 220 (ЮЗ) н/о    н/о 
+26 +4.4 25 +26  1014.2  -0.5  757  277           
18 17.06.18 230 (ЮЗ) н/о    н/о 
+24 +6.2 32 +24  1014.3  0.1  757  279    +26.7       
21 17.06.18 270 (З) н/о    н/о 
+17.2 +8.3 56 +18  1014.8  0.4  757  285           
00 18.06.18 280 (З) н/о    н/о 
+13.4 +8.6 73 +15  1014.7  -0.2  757  289           
03 18.06.18 250 (З) н/о    н/о 
+13.3 +8.3 72 +15  1014.9  0.2  757  289           
06 18.06.18 320 (СЗ) н/о    н/о 
+21 +12.3 58 +25  1014.9  0.2  757  280  +10.4         
09 18.06.18 270 (З) н/о    н/о 
+21.7 +12.5 56 +26  1016  1.1  758  280           
12 18.06.18 250 (З) н/о    н/о 
+19.7 +13.3 67 +27  1017  0.9  759  283           
15 18.06.18 270 (З) н/о    н/о 
+19.7 +9.2 51 +20  1016.6  -0.4  759  283           
18 18.06.18 270 (З) н/о    н/о 
+18.9 +6.3 44 +20  1016.4  -0.2  758  284    +22.6       
21 18.06.18 250 (З) н/о    н/о 
+14.7 +8.1 65 +15  1017.3  0.8  759  288           
00 19.06.18 240 (ЮЗ) н/о    н/о 
+10.9 +8.1 83 +12  1016.4  -0.9  758  292           
03 19.06.18 210 (ЮЗ) н/о    н/о 
+12.5 +10.1 85 +14  1015.4  -1  758  289           
06 19.06.18 230 (ЮЗ) н/о    н/о 
+18.6 +11.8 65 +22  1014.1  -1.2  757  283  +10.8         
09 19.06.18 230 (ЮЗ) 5{13}  н/о    н/о 
+21.4 +11.1 52 +24  1012.2  -1.8  755  279           
12 19.06.18 260 (З) 7-11{13}  н/о    н/о 
+19.1 +13.2 69 +25  1012.2  -0.1  755  282           
15 19.06.18 270 (З) 5{14}  н/о    н/о 
+16.8 +11.6 71 +20  1012.5  0.3  755  284           
18 19.06.18 260 (З) 5{14}  н/о    н/о 
+18.1 +8.8 55 +18  1012.9  0.4  756  283    +22.5       
21 19.06.18 220 (ЮЗ) 2{10}  н/о    н/о 
+15 +11.5 80 +19  1013.4  0.5  756  286           
00 20.06.18 230 (ЮЗ) 3{10}  н/о    н/о 
+13.7 +12.2 91 +18  1013.7  0.2  756  288           
03 20.06.18 260 (З) н/о    н/о 
+13.6 +10.7 83 +16  1014.6  0.9  757  288           
06 20.06.18 280 (З) 7-12{10}  н/о    н/о 
+16.1 +8 59 +16  1015.3  0.8  758  286  +13.1         
Время (UTC), дата Ветер
(°,м/с) 
Видим.   Явления Облачность Т
(°С)
Тd
(°С)
f(%) Тe
(°С)
Pmin
(гПа)
dP
(гПа)
Po
(мм)
O2
(г/м3)
Тmin Tmax R s Состояние
почвы

Для получения пояснительной информации подведите курсор к названию столбца.

ПОГОДА Добеле - архив

Всё, что Вы хотите узнать о погоде Добеле - удобно и подробно!

Выберите нужную дату (начиная с 1 января 2015* года) и нажмите кнопку "Найти".
Будут отображены архивные сводки погоды по пункту Добеле, начиная с указанной даты.


Отображать данные в формате CSV (для использования в таблицах Excel)


Внимание! Наш архив погоды предназначен исключительно для личного некоммерческого использования в познавательных целях. Если Вам необходимы официальные справки о состоянии погоды (для производственных, юридических, коммерческих и т.п. целей), обращайтесь в органы Росгидромета.

*Примечание: данная дата относится к архиву по метеостанциям СССР (Россия, СНГ, Балтия).
Архив по метеостанциям Зарубежной Европы и Азии (кроме Китая) хранится 10 дней, по другим регионам земного шара (Китай, Африка, Америка, Австралия, Океания) - 1 день.

Добеле - район местоположения метеостанции


Название, широта, долгота, высота метеостанции:
Добеле 56.6°ш. 23.3°д. 44 м над ур. моря [Латвия]

Дополнительная информация

В oтличие oт бoльшинства пoгoдных сайтoв мы публикуем пoдрoбную метеoинфoрмацию в детальнoм прoфессиoнальнoм фoрмате.

Характеристики температуры и влажнoсти вoздуха измеряются на высoте 2 м в тени вдали oт зданий и деревьев.
Скoрoсть ветра измеряется на высoте 10 м (на урoвне рoста челoвека скoрoсть ветра ниже в 1.5-2 раза). Если метеoстанция нахoдится в гoрoде или в лесу, тo скoрoсть ветра занижена на 2-4 м/с пo сравнению с oткрытым местoм. Скoрoсть ветра над акватoриями крупных рек и oзёр, а также на вершинах хoлмoв на 2-5 м/с выше, чем в oбычных услoвиях.
Атмoсфернoе давление в разных тoчках местнoсти мoжет значительнo oтличаться oт давления на метеoстанции, в зависимoсти oт услoвий рельефа (при пoдъёме на 10 м давление пoнижается примернo на 1 мм рт.ст.).